Netzbetreibername:;Stadtwerke Schwarzenberg GmbH;;
Netz- oder Umspannebene:;Summenlast Netzverluste;;
Lastgangtyp:;Lastverlauf Netzverluste;;
gesetzliche Grundlage:;� 17 Abs. 2 Nr. 3 StromNZV;;
Einheit:;kW;;
Betrachtungszeitraum:;01.01.2022;bis;31.12.2022
;;;
Datum;von;bis;Wert
01.01.2022;0:00;0:15;145
01.01.2022;0:15;0:30;139
01.01.2022;0:30;0:45;136
01.01.2022;0:45;1:00;125
01.01.2022;1:00;1:15;125
01.01.2022;1:15;1:30;120
01.01.2022;1:30;1:45;111
01.01.2022;1:45;2:00;106
01.01.2022;2:00;2:15;102
01.01.2022;2:15;2:30;96
01.01.2022;2:30;2:45;93
01.01.2022;2:45;3:00;90
01.01.2022;3:00;3:15;86
01.01.2022;3:15;3:30;85
01.01.2022;3:30;3:45;85
01.01.2022;3:45;4:00;86
01.01.2022;4:00;4:15;87
01.01.2022;4:15;4:30;88
01.01.2022;4:30;4:45;95
01.01.2022;4:45;5:00;95
01.01.2022;5:00;5:15;96
01.01.2022;5:15;5:30;93
01.01.2022;5:30;5:45;95
01.01.2022;5:45;6:00;93
01.01.2022;6:00;6:15;96
01.01.2022;6:15;6:30;105
01.01.2022;6:30;6:45;110
01.01.2022;6:45;7:00;111
01.01.2022;7:00;7:15;116
01.01.2022;7:15;7:30;121
01.01.2022;7:30;7:45;124
01.01.2022;7:45;8:00;127
01.01.2022;8:00;8:15;117
01.01.2022;8:15;8:30;130
01.01.2022;8:30;8:45;136
01.01.2022;8:45;9:00;146
01.01.2022;9:00;9:15;150
01.01.2022;9:15;9:30;152
01.01.2022;9:30;9:45;152
01.01.2022;9:45;10:00;160
01.01.2022;10:00;10:15;170
01.01.2022;10:15;10:30;181
01.01.2022;10:30;10:45;186
01.01.2022;10:45;11:00;195
01.01.2022;11:00;11:15;206
01.01.2022;11:15;11:30;238
01.01.2022;11:30;11:45;256
01.01.2022;11:45;12:00;255
01.01.2022;12:00;12:15;249
01.01.2022;12:15;12:30;248
01.01.2022;12:30;12:45;228
01.01.2022;12:45;13:00;215
01.01.2022;13:00;13:15;191
01.01.2022;13:15;13:30;184
01.01.2022;13:30;13:45;174
01.01.2022;13:45;14:00;176
01.01.2022;14:00;14:15;171
01.01.2022;14:15;14:30;173
01.01.2022;14:30;14:45;178
01.01.2022;14:45;15:00;179
01.01.2022;15:00;15:15;186
01.01.2022;15:15;15:30;177
01.01.2022;15:30;15:45;183
01.01.2022;15:45;16:00;194
01.01.2022;16:00;16:15;220
01.01.2022;16:15;16:30;233
01.01.2022;16:30;16:45;269
01.01.2022;16:45;17:00;292
01.01.2022;17:00;17:15;317
01.01.2022;17:15;17:30;334
01.01.2022;17:30;17:45;354
01.01.2022;17:45;18:00;365
01.01.2022;18:00;18:15;355
01.01.2022;18:15;18:30;355
01.01.2022;18:30;18:45;362
01.01.2022;18:45;19:00;350
01.01.2022;19:00;19:15;348
01.01.2022;19:15;19:30;342
01.01.2022;19:30;19:45;332
01.01.2022;19:45;20:00;313
01.01.2022;20:00;20:15;308
01.01.2022;20:15;20:30;299
01.01.2022;20:30;20:45;286
01.01.2022;20:45;21:00;272
01.01.2022;21:00;21:15;262
01.01.2022;21:15;21:30;254
01.01.2022;21:30;21:45;244
01.01.2022;21:45;22:00;237
01.01.2022;22:00;22:15;224
01.01.2022;22:15;22:30;202
01.01.2022;22:30;22:45;182
01.01.2022;22:45;23:00;168
01.01.2022;23:00;23:15;151
01.01.2022;23:15;23:30;142
01.01.2022;23:30;23:45;132
01.01.2022;23:45;0:00;125
02.01.2022;0:00;0:15;118
02.01.2022;0:15;0:30;108
02.01.2022;0:30;0:45;103
02.01.2022;0:45;1:00;98
02.01.2022;1:00;1:15;92
02.01.2022;1:15;1:30;90
02.01.2022;1:30;1:45;88
02.01.2022;1:45;2:00;86
02.01.2022;2:00;2:15;83
02.01.2022;2:15;2:30;82
02.01.2022;2:30;2:45;81
02.01.2022;2:45;3:00;85
02.01.2022;3:00;3:15;88
02.01.2022;3:15;3:30;84
02.01.2022;3:30;3:45;84
02.01.2022;3:45;4:00;88
02.01.2022;4:00;4:15;95
02.01.2022;4:15;4:30;94
02.01.2022;4:30;4:45;101
02.01.2022;4:45;5:00;100
02.01.2022;5:00;5:15;104
02.01.2022;5:15;5:30;105
02.01.2022;5:30;5:45;104
02.01.2022;5:45;6:00;102
02.01.2022;6:00;6:15;101
02.01.2022;6:15;6:30;102
02.01.2022;6:30;6:45;109
02.01.2022;6:45;7:00;114
02.01.2022;7:00;7:15;127
02.01.2022;7:15;7:30;135
02.01.2022;7:30;7:45;142
02.01.2022;7:45;8:00;146
02.01.2022;8:00;8:15;151
02.01.2022;8:15;8:30;157
02.01.2022;8:30;8:45;165
02.01.2022;8:45;9:00;174
02.01.2022;9:00;9:15;184
02.01.2022;9:15;9:30;191
02.01.2022;9:30;9:45;190
02.01.2022;9:45;10:00;188
02.01.2022;10:00;10:15;204
02.01.2022;10:15;10:30;217
02.01.2022;10:30;10:45;218
02.01.2022;10:45;11:00;246
02.01.2022;11:00;11:15;265
02.01.2022;11:15;11:30;293
02.01.2022;11:30;11:45;307
02.01.2022;11:45;12:00;304
02.01.2022;12:00;12:15;284
02.01.2022;12:15;12:30;257
02.01.2022;12:30;12:45;242
02.01.2022;12:45;13:00;227
02.01.2022;13:00;13:15;210
02.01.2022;13:15;13:30;197
02.01.2022;13:30;13:45;196
02.01.2022;13:45;14:00;184
02.01.2022;14:00;14:15;185
02.01.2022;14:15;14:30;177
02.01.2022;14:30;14:45;170
02.01.2022;14:45;15:00;172
02.01.2022;15:00;15:15;174
02.01.2022;15:15;15:30;176
02.01.2022;15:30;15:45;178
02.01.2022;15:45;16:00;187
02.01.2022;16:00;16:15;203
02.01.2022;16:15;16:30;227
02.01.2022;16:30;16:45;276
02.01.2022;16:45;17:00;316
02.01.2022;17:00;17:15;338
02.01.2022;17:15;17:30;357
02.01.2022;17:30;17:45;374
02.01.2022;17:45;18:00;371
02.01.2022;18:00;18:15;376
02.01.2022;18:15;18:30;378
02.01.2022;18:30;18:45;372
02.01.2022;18:45;19:00;365
02.01.2022;19:00;19:15;360
02.01.2022;19:15;19:30;350
02.01.2022;19:30;19:45;339
02.01.2022;19:45;20:00;324
02.01.2022;20:00;20:15;314
02.01.2022;20:15;20:30;295
02.01.2022;20:30;20:45;288
02.01.2022;20:45;21:00;273
02.01.2022;21:00;21:15;253
02.01.2022;21:15;21:30;237
02.01.2022;21:30;21:45;231
02.01.2022;21:45;22:00;226
02.01.2022;22:00;22:15;206
02.01.2022;22:15;22:30;195
02.01.2022;22:30;22:45;173
02.01.2022;22:45;23:00;159
02.01.2022;23:00;23:15;142
02.01.2022;23:15;23:30;133
02.01.2022;23:30;23:45;121
02.01.2022;23:45;0:00;114
03.01.2022;0:00;0:15;108
03.01.2022;0:15;0:30;99
03.01.2022;0:30;0:45;97
03.01.2022;0:45;1:00;93
03.01.2022;1:00;1:15;92
03.01.2022;1:15;1:30;89
03.01.2022;1:30;1:45;86
03.01.2022;1:45;2:00;84
03.01.2022;2:00;2:15;82
03.01.2022;2:15;2:30;80
03.01.2022;2:30;2:45;84
03.01.2022;2:45;3:00;88
03.01.2022;3:00;3:15;89
03.01.2022;3:15;3:30;94
03.01.2022;3:30;3:45;94
03.01.2022;3:45;4:00;97
03.01.2022;4:00;4:15;102
03.01.2022;4:15;4:30;107
03.01.2022;4:30;4:45;118
03.01.2022;4:45;5:00;123
03.01.2022;5:00;5:15;134
03.01.2022;5:15;5:30;149
03.01.2022;5:30;5:45;169
03.01.2022;5:45;6:00;179
03.01.2022;6:00;6:15;224
03.01.2022;6:15;6:30;250
03.01.2022;6:30;6:45;276
03.01.2022;6:45;7:00;301
03.01.2022;7:00;7:15;326
03.01.2022;7:15;7:30;343
03.01.2022;7:30;7:45;366
03.01.2022;7:45;8:00;377
03.01.2022;8:00;8:15;371
03.01.2022;8:15;8:30;369
03.01.2022;8:30;8:45;365
03.01.2022;8:45;9:00;381
03.01.2022;9:00;9:15;389
03.01.2022;9:15;9:30;385
03.01.2022;9:30;9:45;405
03.01.2022;9:45;10:00;403
03.01.2022;10:00;10:15;408
03.01.2022;10:15;10:30;396
03.01.2022;10:30;10:45;391
03.01.2022;10:45;11:00;395
03.01.2022;11:00;11:15;398
03.01.2022;11:15;11:30;423
03.01.2022;11:30;11:45;450
03.01.2022;11:45;12:00;427
03.01.2022;12:00;12:15;389
03.01.2022;12:15;12:30;374
03.01.2022;12:30;12:45;359
03.01.2022;12:45;13:00;376
03.01.2022;13:00;13:15;380
03.01.2022;13:15;13:30;358
03.01.2022;13:30;13:45;352
03.01.2022;13:45;14:00;353
03.01.2022;14:00;14:15;346
03.01.2022;14:15;14:30;351
03.01.2022;14:30;14:45;338
03.01.2022;14:45;15:00;333
03.01.2022;15:00;15:15;331
03.01.2022;15:15;15:30;338
03.01.2022;15:30;15:45;346
03.01.2022;15:45;16:00;361
03.01.2022;16:00;16:15;396
03.01.2022;16:15;16:30;421
03.01.2022;16:30;16:45;470
03.01.2022;16:45;17:00;496
03.01.2022;17:00;17:15;505
03.01.2022;17:15;17:30;520
03.01.2022;17:30;17:45;521
03.01.2022;17:45;18:00;535
03.01.2022;18:00;18:15;520
03.01.2022;18:15;18:30;506
03.01.2022;18:30;18:45;500
03.01.2022;18:45;19:00;477
03.01.2022;19:00;19:15;461
03.01.2022;19:15;19:30;447
03.01.2022;19:30;19:45;430
03.01.2022;19:45;20:00;402
03.01.2022;20:00;20:15;386
03.01.2022;20:15;20:30;374
03.01.2022;20:30;20:45;354
03.01.2022;20:45;21:00;343
03.01.2022;21:00;21:15;319
03.01.2022;21:15;21:30;303
03.01.2022;21:30;21:45;293
03.01.2022;21:45;22:00;272
03.01.2022;22:00;22:15;229
03.01.2022;22:15;22:30;213
03.01.2022;22:30;22:45;190
03.01.2022;22:45;23:00;182
03.01.2022;23:00;23:15;164
03.01.2022;23:15;23:30;152
03.01.2022;23:30;23:45;137
03.01.2022;23:45;0:00;129
04.01.2022;0:00;0:15;122
04.01.2022;0:15;0:30;115
04.01.2022;0:30;0:45;108
04.01.2022;0:45;1:00;104
04.01.2022;1:00;1:15;106
04.01.2022;1:15;1:30;107
04.01.2022;1:30;1:45;100
04.01.2022;1:45;2:00;98
04.01.2022;2:00;2:15;96
04.01.2022;2:15;2:30;95
04.01.2022;2:30;2:45;88
04.01.2022;2:45;3:00;86
04.01.2022;3:00;3:15;85
04.01.2022;3:15;3:30;88
04.01.2022;3:30;3:45;92
04.01.2022;3:45;4:00;96
04.01.2022;4:00;4:15;101
04.01.2022;4:15;4:30;104
04.01.2022;4:30;4:45;113
04.01.2022;4:45;5:00;122
04.01.2022;5:00;5:15;139
04.01.2022;5:15;5:30;148
04.01.2022;5:30;5:45;174
04.01.2022;5:45;6:00;199
04.01.2022;6:00;6:15;229
04.01.2022;6:15;6:30;244
04.01.2022;6:30;6:45;269
04.01.2022;6:45;7:00;293
04.01.2022;7:00;7:15;307
04.01.2022;7:15;7:30;329
04.01.2022;7:30;7:45;352
04.01.2022;7:45;8:00;372
04.01.2022;8:00;8:15;367
04.01.2022;8:15;8:30;370
04.01.2022;8:30;8:45;380
04.01.2022;8:45;9:00;392
04.01.2022;9:00;9:15;370
04.01.2022;9:15;9:30;373
04.01.2022;9:30;9:45;386
04.01.2022;9:45;10:00;397
04.01.2022;10:00;10:15;388
04.01.2022;10:15;10:30;386
04.01.2022;10:30;10:45;380
04.01.2022;10:45;11:00;381
04.01.2022;11:00;11:15;403
04.01.2022;11:15;11:30;417
04.01.2022;11:30;11:45;412
04.01.2022;11:45;12:00;411
04.01.2022;12:00;12:15;388
04.01.2022;12:15;12:30;381
04.01.2022;12:30;12:45;391
04.01.2022;12:45;13:00;399
04.01.2022;13:00;13:15;400
04.01.2022;13:15;13:30;384
04.01.2022;13:30;13:45;357
04.01.2022;13:45;14:00;338
04.01.2022;14:00;14:15;342
04.01.2022;14:15;14:30;354
04.01.2022;14:30;14:45;356
04.01.2022;14:45;15:00;344
04.01.2022;15:00;15:15;344
04.01.2022;15:15;15:30;353
04.01.2022;15:30;15:45;364
04.01.2022;15:45;16:00;368
04.01.2022;16:00;16:15;397
04.01.2022;16:15;16:30;422
04.01.2022;16:30;16:45;465
04.01.2022;16:45;17:00;491
04.01.2022;17:00;17:15;507
04.01.2022;17:15;17:30;522
04.01.2022;17:30;17:45;528
04.01.2022;17:45;18:00;548
04.01.2022;18:00;18:15;523
04.01.2022;18:15;18:30;512
04.01.2022;18:30;18:45;515
04.01.2022;18:45;19:00;505
04.01.2022;19:00;19:15;480
04.01.2022;19:15;19:30;461
04.01.2022;19:30;19:45;457
04.01.2022;19:45;20:00;425
04.01.2022;20:00;20:15;404
04.01.2022;20:15;20:30;393
04.01.2022;20:30;20:45;367
04.01.2022;20:45;21:00;343
04.01.2022;21:00;21:15;330
04.01.2022;21:15;21:30;317
04.01.2022;21:30;21:45;302
04.01.2022;21:45;22:00;275
04.01.2022;22:00;22:15;249
04.01.2022;22:15;22:30;229
04.01.2022;22:30;22:45;207
04.01.2022;22:45;23:00;186
04.01.2022;23:00;23:15;169
04.01.2022;23:15;23:30;150
04.01.2022;23:30;23:45;136
04.01.2022;23:45;0:00;132
05.01.2022;0:00;0:15;125
05.01.2022;0:15;0:30;118
05.01.2022;0:30;0:45;114
05.01.2022;0:45;1:00;108
05.01.2022;1:00;1:15;101
05.01.2022;1:15;1:30;99
05.01.2022;1:30;1:45;95
05.01.2022;1:45;2:00;96
05.01.2022;2:00;2:15;95
05.01.2022;2:15;2:30;96
05.01.2022;2:30;2:45;102
05.01.2022;2:45;3:00;108
05.01.2022;3:00;3:15;113
05.01.2022;3:15;3:30;114
05.01.2022;3:30;3:45;120
05.01.2022;3:45;4:00;125
05.01.2022;4:00;4:15;132
05.01.2022;4:15;4:30;130
05.01.2022;4:30;4:45;152
05.01.2022;4:45;5:00;164
05.01.2022;5:00;5:15;170
05.01.2022;5:15;5:30;187
05.01.2022;5:30;5:45;215
05.01.2022;5:45;6:00;238
05.01.2022;6:00;6:15;257
05.01.2022;6:15;6:30;291
05.01.2022;6:30;6:45;320
05.01.2022;6:45;7:00;338
05.01.2022;7:00;7:15;362
05.01.2022;7:15;7:30;384
05.01.2022;7:30;7:45;416
05.01.2022;7:45;8:00;416
05.01.2022;8:00;8:15;424
05.01.2022;8:15;8:30;421
05.01.2022;8:30;8:45;413
05.01.2022;8:45;9:00;435
05.01.2022;9:00;9:15;414
05.01.2022;9:15;9:30;423
05.01.2022;9:30;9:45;444
05.01.2022;9:45;10:00;443
05.01.2022;10:00;10:15;441
05.01.2022;10:15;10:30;450
05.01.2022;10:30;10:45;440
05.01.2022;10:45;11:00;460
05.01.2022;11:00;11:15;481
05.01.2022;11:15;11:30;501
05.01.2022;11:30;11:45;499
05.01.2022;11:45;12:00;492
05.01.2022;12:00;12:15;439
05.01.2022;12:15;12:30;411
05.01.2022;12:30;12:45;414
05.01.2022;12:45;13:00;421
05.01.2022;13:00;13:15;417
05.01.2022;13:15;13:30;398
05.01.2022;13:30;13:45;389
05.01.2022;13:45;14:00;387
05.01.2022;14:00;14:15;394
05.01.2022;14:15;14:30;383
05.01.2022;14:30;14:45;371
05.01.2022;14:45;15:00;362
05.01.2022;15:00;15:15;360
05.01.2022;15:15;15:30;354
05.01.2022;15:30;15:45;365
05.01.2022;15:45;16:00;377
05.01.2022;16:00;16:15;406
05.01.2022;16:15;16:30;436
05.01.2022;16:30;16:45;505
05.01.2022;16:45;17:00;526
05.01.2022;17:00;17:15;534
05.01.2022;17:15;17:30;558
05.01.2022;17:30;17:45;577
05.01.2022;17:45;18:00;563
05.01.2022;18:00;18:15;543
05.01.2022;18:15;18:30;546
05.01.2022;18:30;18:45;542
05.01.2022;18:45;19:00;519
05.01.2022;19:00;19:15;500
05.01.2022;19:15;19:30;474
05.01.2022;19:30;19:45;463
05.01.2022;19:45;20:00;442
05.01.2022;20:00;20:15;416
05.01.2022;20:15;20:30;391
05.01.2022;20:30;20:45;372
05.01.2022;20:45;21:00;358
05.01.2022;21:00;21:15;334
05.01.2022;21:15;21:30;320
05.01.2022;21:30;21:45;301
05.01.2022;21:45;22:00;277
05.01.2022;22:00;22:15;246
05.01.2022;22:15;22:30;224
05.01.2022;22:30;22:45;203
05.01.2022;22:45;23:00;189
05.01.2022;23:00;23:15;173
05.01.2022;23:15;23:30;158
05.01.2022;23:30;23:45;150
05.01.2022;23:45;0:00;145
06.01.2022;0:00;0:15;133
06.01.2022;0:15;0:30;127
06.01.2022;0:30;0:45;126
06.01.2022;0:45;1:00;123
06.01.2022;1:00;1:15;120
06.01.2022;1:15;1:30;119
06.01.2022;1:30;1:45;118
06.01.2022;1:45;2:00;112
06.01.2022;2:00;2:15;106
06.01.2022;2:15;2:30;107
06.01.2022;2:30;2:45;111
06.01.2022;2:45;3:00;114
06.01.2022;3:00;3:15;115
06.01.2022;3:15;3:30;122
06.01.2022;3:30;3:45;126
06.01.2022;3:45;4:00;128
06.01.2022;4:00;4:15;130
06.01.2022;4:15;4:30;140
06.01.2022;4:30;4:45;157
06.01.2022;4:45;5:00;166
06.01.2022;5:00;5:15;178
06.01.2022;5:15;5:30;190
06.01.2022;5:30;5:45;214
06.01.2022;5:45;6:00;246
06.01.2022;6:00;6:15;280
06.01.2022;6:15;6:30;312
06.01.2022;6:30;6:45;337
06.01.2022;6:45;7:00;352
06.01.2022;7:00;7:15;379
06.01.2022;7:15;7:30;426
06.01.2022;7:30;7:45;448
06.01.2022;7:45;8:00;428
06.01.2022;8:00;8:15;411
06.01.2022;8:15;8:30;398
06.01.2022;8:30;8:45;397
06.01.2022;8:45;9:00;415
06.01.2022;9:00;9:15;393
06.01.2022;9:15;9:30;404
06.01.2022;9:30;9:45;426
06.01.2022;9:45;10:00;440
06.01.2022;10:00;10:15;449
06.01.2022;10:15;10:30;456
06.01.2022;10:30;10:45;458
06.01.2022;10:45;11:00;465
06.01.2022;11:00;11:15;469
06.01.2022;11:15;11:30;486
06.01.2022;11:30;11:45;497
06.01.2022;11:45;12:00;484
06.01.2022;12:00;12:15;452
06.01.2022;12:15;12:30;424
06.01.2022;12:30;12:45;422
06.01.2022;12:45;13:00;406
06.01.2022;13:00;13:15;395
06.01.2022;13:15;13:30;393
06.01.2022;13:30;13:45;377
06.01.2022;13:45;14:00;363
06.01.2022;14:00;14:15;368
06.01.2022;14:15;14:30;355
06.01.2022;14:30;14:45;348
06.01.2022;14:45;15:00;349
06.01.2022;15:00;15:15;346
06.01.2022;15:15;15:30;349
06.01.2022;15:30;15:45;360
06.01.2022;15:45;16:00;372
06.01.2022;16:00;16:15;380
06.01.2022;16:15;16:30;407
06.01.2022;16:30;16:45;461
06.01.2022;16:45;17:00;505
06.01.2022;17:00;17:15;535
06.01.2022;17:15;17:30;565
06.01.2022;17:30;17:45;590
06.01.2022;17:45;18:00;585
06.01.2022;18:00;18:15;562
06.01.2022;18:15;18:30;541
06.01.2022;18:30;18:45;540
06.01.2022;18:45;19:00;526
06.01.2022;19:00;19:15;506
06.01.2022;19:15;19:30;489
06.01.2022;19:30;19:45;468
06.01.2022;19:45;20:00;450
06.01.2022;20:00;20:15;420
06.01.2022;20:15;20:30;395
06.01.2022;20:30;20:45;388
06.01.2022;20:45;21:00;370
06.01.2022;21:00;21:15;362
06.01.2022;21:15;21:30;342
06.01.2022;21:30;21:45;326
06.01.2022;21:45;22:00;290
06.01.2022;22:00;22:15;268
06.01.2022;22:15;22:30;239
06.01.2022;22:30;22:45;217
06.01.2022;22:45;23:00;198
06.01.2022;23:00;23:15;188
06.01.2022;23:15;23:30;178
06.01.2022;23:30;23:45;166
06.01.2022;23:45;0:00;156
07.01.2022;0:00;0:15;150
07.01.2022;0:15;0:30;148
07.01.2022;0:30;0:45;145
07.01.2022;0:45;1:00;141
07.01.2022;1:00;1:15;138
07.01.2022;1:15;1:30;135
07.01.2022;1:30;1:45;137
07.01.2022;1:45;2:00;139
07.01.2022;2:00;2:15;131
07.01.2022;2:15;2:30;130
07.01.2022;2:30;2:45;134
07.01.2022;2:45;3:00;135
07.01.2022;3:00;3:15;141
07.01.2022;3:15;3:30;144
07.01.2022;3:30;3:45;135
07.01.2022;3:45;4:00;139
07.01.2022;4:00;4:15;143
07.01.2022;4:15;4:30;147
07.01.2022;4:30;4:45;164
07.01.2022;4:45;5:00;167
07.01.2022;5:00;5:15;167
07.01.2022;5:15;5:30;186
07.01.2022;5:30;5:45;216
07.01.2022;5:45;6:00;233
07.01.2022;6:00;6:15;264
07.01.2022;6:15;6:30;291
07.01.2022;6:30;6:45;320
07.01.2022;6:45;7:00;343
07.01.2022;7:00;7:15;381
07.01.2022;7:15;7:30;405
07.01.2022;7:30;7:45;434
07.01.2022;7:45;8:00;456
07.01.2022;8:00;8:15;454
07.01.2022;8:15;8:30;455
07.01.2022;8:30;8:45;446
07.01.2022;8:45;9:00;447
07.01.2022;9:00;9:15;430
07.01.2022;9:15;9:30;425
07.01.2022;9:30;9:45;450
07.01.2022;9:45;10:00;446
07.01.2022;10:00;10:15;464
07.01.2022;10:15;10:30;469
07.01.2022;10:30;10:45;464
07.01.2022;10:45;11:00;461
07.01.2022;11:00;11:15;469
07.01.2022;11:15;11:30;490
07.01.2022;11:30;11:45;492
07.01.2022;11:45;12:00;480
07.01.2022;12:00;12:15;433
07.01.2022;12:15;12:30;437
07.01.2022;12:30;12:45;441
07.01.2022;12:45;13:00;432
07.01.2022;13:00;13:15;417
07.01.2022;13:15;13:30;407
07.01.2022;13:30;13:45;392
07.01.2022;13:45;14:00;371
07.01.2022;14:00;14:15;359
07.01.2022;14:15;14:30;361
07.01.2022;14:30;14:45;374
07.01.2022;14:45;15:00;380
07.01.2022;15:00;15:15;374
07.01.2022;15:15;15:30;375
07.01.2022;15:30;15:45;384
07.01.2022;15:45;16:00;398
07.01.2022;16:00;16:15;432
07.01.2022;16:15;16:30;468
07.01.2022;16:30;16:45;509
07.01.2022;16:45;17:00;524
07.01.2022;17:00;17:15;533
07.01.2022;17:15;17:30;541
07.01.2022;17:30;17:45;534
07.01.2022;17:45;18:00;538
07.01.2022;18:00;18:15;507
07.01.2022;18:15;18:30;515
07.01.2022;18:30;18:45;518
07.01.2022;18:45;19:00;506
07.01.2022;19:00;19:15;490
07.01.2022;19:15;19:30;473
07.01.2022;19:30;19:45;457
07.01.2022;19:45;20:00;426
07.01.2022;20:00;20:15;397
07.01.2022;20:15;20:30;381
07.01.2022;20:30;20:45;359
07.01.2022;20:45;21:00;336
07.01.2022;21:00;21:15;322
07.01.2022;21:15;21:30;309
07.01.2022;21:30;21:45;294
07.01.2022;21:45;22:00;282
07.01.2022;22:00;22:15;268
07.01.2022;22:15;22:30;244
07.01.2022;22:30;22:45;215
07.01.2022;22:45;23:00;194
07.01.2022;23:00;23:15;181
07.01.2022;23:15;23:30;175
07.01.2022;23:30;23:45;165
07.01.2022;23:45;0:00;155
08.01.2022;0:00;0:15;142
08.01.2022;0:15;0:30;135
08.01.2022;0:30;0:45;128
08.01.2022;0:45;1:00;126
08.01.2022;1:00;1:15;121
08.01.2022;1:15;1:30;122
08.01.2022;1:30;1:45;120
08.01.2022;1:45;2:00;117
08.01.2022;2:00;2:15;114
08.01.2022;2:15;2:30;118
08.01.2022;2:30;2:45;121
08.01.2022;2:45;3:00;122
08.01.2022;3:00;3:15;124
08.01.2022;3:15;3:30;127
08.01.2022;3:30;3:45;122
08.01.2022;3:45;4:00;125
08.01.2022;4:00;4:15;130
08.01.2022;4:15;4:30;136
08.01.2022;4:30;4:45;145
08.01.2022;4:45;5:00;145
08.01.2022;5:00;5:15;151
08.01.2022;5:15;5:30;152
08.01.2022;5:30;5:45;152
08.01.2022;5:45;6:00;151
08.01.2022;6:00;6:15;150
08.01.2022;6:15;6:30;152
08.01.2022;6:30;6:45;163
08.01.2022;6:45;7:00;174
08.01.2022;7:00;7:15;194
08.01.2022;7:15;7:30;204
08.01.2022;7:30;7:45;225
08.01.2022;7:45;8:00;234
08.01.2022;8:00;8:15;239
08.01.2022;8:15;8:30;249
08.01.2022;8:30;8:45;269
08.01.2022;8:45;9:00;286
08.01.2022;9:00;9:15;281
08.01.2022;9:15;9:30;302
08.01.2022;9:30;9:45;312
08.01.2022;9:45;10:00;324
08.01.2022;10:00;10:15;337
08.01.2022;10:15;10:30;348
08.01.2022;10:30;10:45;353
08.01.2022;10:45;11:00;364
08.01.2022;11:00;11:15;376
08.01.2022;11:15;11:30;410
08.01.2022;11:30;11:45;424
08.01.2022;11:45;12:00;411
08.01.2022;12:00;12:15;384
08.01.2022;12:15;12:30;371
08.01.2022;12:30;12:45;364
08.01.2022;12:45;13:00;350
08.01.2022;13:00;13:15;329
08.01.2022;13:15;13:30;311
08.01.2022;13:30;13:45;294
08.01.2022;13:45;14:00;276
08.01.2022;14:00;14:15;272
08.01.2022;14:15;14:30;262
08.01.2022;14:30;14:45;260
08.01.2022;14:45;15:00;255
08.01.2022;15:00;15:15;258
08.01.2022;15:15;15:30;267
08.01.2022;15:30;15:45;281
08.01.2022;15:45;16:00;297
08.01.2022;16:00;16:15;301
08.01.2022;16:15;16:30;306
08.01.2022;16:30;16:45;343
08.01.2022;16:45;17:00;371
08.01.2022;17:00;17:15;384
08.01.2022;17:15;17:30;401
08.01.2022;17:30;17:45;406
08.01.2022;17:45;18:00;417
08.01.2022;18:00;18:15;426
08.01.2022;18:15;18:30;432
08.01.2022;18:30;18:45;431
08.01.2022;18:45;19:00;421
08.01.2022;19:00;19:15;406
08.01.2022;19:15;19:30;381
08.01.2022;19:30;19:45;365
08.01.2022;19:45;20:00;354
08.01.2022;20:00;20:15;333
08.01.2022;20:15;20:30;314
08.01.2022;20:30;20:45;306
08.01.2022;20:45;21:00;287
08.01.2022;21:00;21:15;273
08.01.2022;21:15;21:30;268
08.01.2022;21:30;21:45;260
08.01.2022;21:45;22:00;256
08.01.2022;22:00;22:15;244
08.01.2022;22:15;22:30;227
08.01.2022;22:30;22:45;209
08.01.2022;22:45;23:00;193
08.01.2022;23:00;23:15;176
08.01.2022;23:15;23:30;169
08.01.2022;23:30;23:45;161
08.01.2022;23:45;0:00;151
09.01.2022;0:00;0:15;142
09.01.2022;0:15;0:30;134
09.01.2022;0:30;0:45;129
09.01.2022;0:45;1:00;124
09.01.2022;1:00;1:15;122
09.01.2022;1:15;1:30;115
09.01.2022;1:30;1:45;111
09.01.2022;1:45;2:00;108
09.01.2022;2:00;2:15;109
09.01.2022;2:15;2:30;110
09.01.2022;2:30;2:45;116
09.01.2022;2:45;3:00;118
09.01.2022;3:00;3:15;119
09.01.2022;3:15;3:30;122
09.01.2022;3:30;3:45;120
09.01.2022;3:45;4:00;116
09.01.2022;4:00;4:15;117
09.01.2022;4:15;4:30;117
09.01.2022;4:30;4:45;124
09.01.2022;4:45;5:00;128
09.01.2022;5:00;5:15;129
09.01.2022;5:15;5:30;131
09.01.2022;5:30;5:45;125
09.01.2022;5:45;6:00;120
09.01.2022;6:00;6:15;119
09.01.2022;6:15;6:30;121
09.01.2022;6:30;6:45;134
09.01.2022;6:45;7:00;142
09.01.2022;7:00;7:15;150
09.01.2022;7:15;7:30;158
09.01.2022;7:30;7:45;178
09.01.2022;7:45;8:00;183
09.01.2022;8:00;8:15;185
09.01.2022;8:15;8:30;196
09.01.2022;8:30;8:45;210
09.01.2022;8:45;9:00;217
09.01.2022;9:00;9:15;224
09.01.2022;9:15;9:30;231
09.01.2022;9:30;9:45;234
09.01.2022;9:45;10:00;236
09.01.2022;10:00;10:15;245
09.01.2022;10:15;10:30;274
09.01.2022;10:30;10:45;272
09.01.2022;10:45;11:00;297
09.01.2022;11:00;11:15;316
09.01.2022;11:15;11:30;385
09.01.2022;11:30;11:45;409
09.01.2022;11:45;12:00;386
09.01.2022;12:00;12:15;340
09.01.2022;12:15;12:30;299
09.01.2022;12:30;12:45;289
09.01.2022;12:45;13:00;276
09.01.2022;13:00;13:15;260
09.01.2022;13:15;13:30;248
09.01.2022;13:30;13:45;233
09.01.2022;13:45;14:00;220
09.01.2022;14:00;14:15;220
09.01.2022;14:15;14:30;220
09.01.2022;14:30;14:45;234
09.01.2022;14:45;15:00;237
09.01.2022;15:00;15:15;234
09.01.2022;15:15;15:30;242
09.01.2022;15:30;15:45;239
09.01.2022;15:45;16:00;244
09.01.2022;16:00;16:15;259
09.01.2022;16:15;16:30;267
09.01.2022;16:30;16:45;299
09.01.2022;16:45;17:00;326
09.01.2022;17:00;17:15;352
09.01.2022;17:15;17:30;374
09.01.2022;17:30;17:45;385
09.01.2022;17:45;18:00;404
09.01.2022;18:00;18:15;417
09.01.2022;18:15;18:30;417
09.01.2022;18:30;18:45;411
09.01.2022;18:45;19:00;401
09.01.2022;19:00;19:15;385
09.01.2022;19:15;19:30;366
09.01.2022;19:30;19:45;345
09.01.2022;19:45;20:00;314
09.01.2022;20:00;20:15;308
09.01.2022;20:15;20:30;292
09.01.2022;20:30;20:45;270
09.01.2022;20:45;21:00;263
09.01.2022;21:00;21:15;242
09.01.2022;21:15;21:30;231
09.01.2022;21:30;21:45;225
09.01.2022;21:45;22:00;216
09.01.2022;22:00;22:15;205
09.01.2022;22:15;22:30;191
09.01.2022;22:30;22:45;170
09.01.2022;22:45;23:00;161
09.01.2022;23:00;23:15;147
09.01.2022;23:15;23:30;139
09.01.2022;23:30;23:45;130
09.01.2022;23:45;0:00;122
10.01.2022;0:00;0:15;111
10.01.2022;0:15;0:30;106
10.01.2022;0:30;0:45;105
10.01.2022;0:45;1:00;104
10.01.2022;1:00;1:15;102
10.01.2022;1:15;1:30;105
10.01.2022;1:30;1:45;106
10.01.2022;1:45;2:00;106
10.01.2022;2:00;2:15;110
10.01.2022;2:15;2:30;108
10.01.2022;2:30;2:45;110